Voltar ao catálogo

STARLINK-32159

AtivoComunicaçõesVLEO
NORAD 60293·PAYLOAD·🇺🇸 United States

Lançado Jul 28, 2024 de Cape Canaveral Space Force Station

Loading…

Próximas Passagens (próximas 24 horas)

TLE

AtualizadoSource: CelesTrak SupGP

Época: Sep 14, 2026, 22:20 UTC

1 60293C 24132R   26257.93104167  .00036172  00000+0  10975-2 0  2574
2 60293  53.1587 251.6933 0001537  92.8652  81.2237 15.33533108    14

Acompanhe STARLINK-32159 em tempo real com AllMySat

Download on the App Store